Stations météo

réclame
Mon MeteoGroup
Castellon, Espagne (8286): Température de l'air & dewpoint: 18.01.2018 10:00:00 - 24.01.2018 10:00:00 (CET)Castellon, Espagne (8286): Vitesse du vent: 18.01.2018 10:00:00 - 24.01.2018 10:00:00 (CET)Castellon, Espagne (8286): Direction du vent: 18.01.2018 10:00:00 - 24.01.2018 10:00:00 (CET)Castellon, Espagne (8286): reduced air pressure: 18.01.2018 10:00:00 - 24.01.2018 10:00:00 (CET)Castellon, Espagne (8286): visibility: 18.01.2018 10:00:00 - 24.01.2018 10:00:00 (CET)Castellon, Espagne (8286): Quantités de précipitations: 18.01.2018 10:00:00 - 24.01.2018 10:00:00 (CET)
Date & Time tt [°C] td [°C] ff [km/h] ff [knt] dd ppp [hPa] vv [km] rr [mm]
24.01.2018 10:00:00 10,5 4,2 9 5 WNW 1028,7 40 -
24.01.2018 09:00:00 8,6 3,8 8 4 WNW 1028,6 20 0,0
24.01.2018 08:00:00 8,6 4,0 8 4 NW 1028,3 20 0,0
24.01.2018 07:00:00 8,7 4,5 8 4 WNW 1027,9 20 -
24.01.2018 06:00:00 9,0 4,2 9 5 WNW 1027,7 20 0,0
24.01.2018 05:00:00 9,3 4,7 9 5 WNW 1027,8 20 0,0
24.01.2018 04:00:00 9,7 4,9 11 6 WNW 1028,2 20 -
24.01.2018 03:00:00 9,2 5,0 9 5 WNW 1028,5 20 0,0
24.01.2018 02:00:00 9,8 5,4 13 7 WNW 1028,6 20 0,0
24.01.2018 01:00:00 9,6 5,4 8 4 WNW 1029,0 19 -
24.01.2018 00:00:00 9,8 6,1 8 4 WNW 1029,3 20 0,0
23.01.2018 23:00:00 10,7 7,0 4 2 NW 1029,1 18 0,0
23.01.2018 22:00:00 11,6 8,4 2 1 N 1028,6 15 -
23.01.2018 21:00:00 12,5 8,6 4 2 S 1028,1 16 0,0
23.01.2018 20:00:00 13,9 8,7 5 3 ESE 1027,8 20 0,0
23.01.2018 19:00:00 14,9 7,2 4 2 SSW 1027,2 20 -
23.01.2018 18:00:00 17,1 6,6 4 2 S 1026,5 20 0,0
23.01.2018 17:00:00 18,8 6,6 8 4 S 1026,1 20 0,0
23.01.2018 16:00:00 19,6 6,7 9 5 S 1025,8 20 -
23.01.2018 15:00:00 19,9 6,2 11 6 S 1025,6 20 0,0
23.01.2018 14:00:00 20,4 6,0 9 5 S 1025,9 20 0,0
23.01.2018 13:00:00 19,8 6,2 9 5 S 1026,7 40 -
23.01.2018 12:00:00 19,2 5,3 9 5 SW 1027,1 20 0,0
23.01.2018 11:00:00 16,5 4,8 9 5 W 1027,3 20 0,0
23.01.2018 10:00:00 13,3 3,4 13 7 WNW 1027,0 40 -
23.01.2018 09:00:00 11,4 3,7 9 5 WNW 1026,5 20 0,0
23.01.2018 08:00:00 11,3 4,3 5 3 WNW 1026,0 20 0,0
23.01.2018 07:00:00 11,6 4,3 5 3 N 1025,8 20 -
23.01.2018 06:00:00 12,9 4,8 11 6 WNW 1024,9 20 0,0
23.01.2018 05:00:00 12,8 5,0 8 4 WNW 1024,6 20 0,0
23.01.2018 04:00:00 13,6 5,0 18 10 W 1024,5 20 -
23.01.2018 03:00:00 13,0 4,2 11 6 WNW 1024,5 20 0,0
23.01.2018 02:00:00 13,3 3,9 9 5 WNW 1024,6 20 0,0
23.01.2018 01:00:00 13,9 3,6 13 7 WNW 1024,6 20 -
23.01.2018 00:00:00 14,5 2,1 11 6 WNW 1024,6 20 0,0
22.01.2018 23:00:00 15,2 1,7 13 7 W 1024,1 20 0,0
22.01.2018 22:00:00 14,7 3,8 13 7 WNW 1023,8 20 -
22.01.2018 21:00:00 14,5 5,3 5 3 NW 1023,7 20 0,0
22.01.2018 20:00:00 15,7 5,6 5 3 W 1023,3 19 0,0
22.01.2018 19:00:00 17,4 5,3 2 1 NW 1022,7 17 -
22.01.2018 18:00:00 19,9 5,5 2 1 SE 1021,9 20 0,0
22.01.2018 17:00:00 21,6 5,1 5 3 ESE 1021,6 20 0,0
22.01.2018 16:00:00 22,4 4,4 5 3 SSE 1021,4 20 -
22.01.2018 15:00:00 22,7 5,1 8 4 S 1021,3 20 0,0
22.01.2018 14:00:00 23,6 6,4 9 5 S 1021,7 20 0,0
22.01.2018 13:00:00 23,6 7,6 11 6 S 1022,6 40 -
22.01.2018 12:00:00 21,4 4,5 8 4 WNW 1023,6 20 0,0
22.01.2018 11:00:00 18,0 4,2 13 7 WNW 1024,0 20 0,0
22.01.2018 10:00:00 15,0 4,4 11 6 WNW 1023,5 40 -
22.01.2018 09:00:00 11,8 4,5 13 7 WNW 1023,5 20 0,0
22.01.2018 08:00:00 12,7 4,9 13 7 W 1023,2 19 0,0
22.01.2018 07:00:00 12,7 5,1 9 5 WNW 1023,2 20 -
22.01.2018 06:00:00 12,5 5,4 9 5 WNW 1023,1 20 0,0
22.01.2018 05:00:00 13,1 5,7 13 7 WNW 1023,2 20 0,0
22.01.2018 04:00:00 15,4 6,4 8 4 WNW 1023,3 20 -
22.01.2018 03:00:00 16,3 6,7 16 9 WNW 1023,6 20 0,0
22.01.2018 02:00:00 16,6 6,7 16 9 WNW 1023,8 20 0,0
22.01.2018 01:00:00 15,5 6,8 5 3 WNW 1024,3 20 -
22.01.2018 00:00:00 16,5 6,6 11 6 WNW 1024,6 20 0,0
21.01.2018 23:00:00 17,7 6,8 18 10 WNW 1024,4 20 0,0
21.01.2018 22:00:00 18,3 7,1 15 8 WNW 1024,5 20 -
21.01.2018 21:00:00 18,5 7,3 13 7 WNW 1024,2 19 0,0
21.01.2018 20:00:00 18,3 7,4 8 4 W 1023,9 20 0,0
21.01.2018 19:00:00 18,5 7,6 4 2 NNW 1023,2 20 -
21.01.2018 18:00:00 20,3 8,0 4 2 S 1022,1 20 0,0
21.01.2018 17:00:00 22,6 7,6 5 3 SE 1021,8 20 0,0
21.01.2018 16:00:00 23,8 7,8 8 4 SSE 1021,3 20 -
21.01.2018 15:00:00 24,8 7,0 8 4 ESE 1020,7 20 0,0
21.01.2018 14:00:00 24,5 7,2 11 6 W 1020,9 20 0,0
21.01.2018 13:00:00 23,2 6,9 16 9 WNW 1021,7 20 -
21.01.2018 12:00:00 21,6 6,7 15 8 W 1022,2 20 0,0
21.01.2018 11:00:00 19,2 6,6 18 10 WNW 1022,4 20 0,0
21.01.2018 10:00:00 17,9 6,4 13 7 WNW 1022,1 20 -
21.01.2018 09:00:00 16,6 6,4 11 6 W 1021,2 20 0,0
21.01.2018 08:00:00 15,3 5,8 4 2 NW 1020,8 20 0,0
21.01.2018 07:00:00 14,4 5,5 8 4 NW 1020,3 20 -
21.01.2018 06:00:00 15,7 5,3 4 2 WNW 1020,2 20 0,0
21.01.2018 05:00:00 16,3 5,3 8 4 SW 1020,0 20 0,0
21.01.2018 04:00:00 16,5 4,8 8 4 SW 1020,5 20 -
21.01.2018 03:00:00 17,4 5,0 9 5 WSW 1020,7 20 0,0
21.01.2018 02:00:00 17,4 5,0 9 5 WSW 1020,9 20 0,0
21.01.2018 01:00:00 17,4 4,7 8 4 WSW 1021,2 20 -
21.01.2018 00:00:00 17,7 3,6 5 3 W 1021,0 20 0,0
20.01.2018 23:00:00 18,0 2,7 15 8 WNW 1020,5 20 0,0
20.01.2018 22:00:00 17,9 1,8 16 9 WNW 1020,4 20 -
20.01.2018 21:00:00 18,5 1,0 9 5 W 1020,6 20 0,0
20.01.2018 20:00:00 18,6 0,2 24 13 WNW 1020,1 20 0,0
20.01.2018 19:00:00 17,0 -0,3 15 8 WNW 1019,8 20 -
20.01.2018 18:00:00 16,8 1,6 4 2 NW 1019,6 20 0,0
20.01.2018 17:00:00 15,9 2,3 8 4 WNW 1018,9 19 0,0
20.01.2018 16:00:00 16,4 2,4 4 2 NE 1019,0 20 -
20.01.2018 15:00:00 16,7 3,4 2 1 S 1019,4 20 0,0
20.01.2018 14:00:00 16,6 1,5 8 4 WSW 1020,5 20 0,0
20.01.2018 13:00:00 16,2 0,3 15 8 W 1022,1 20 -
20.01.2018 12:00:00 14,0 0,6 15 8 WNW 1023,4 20 0,0
20.01.2018 11:00:00 11,8 1,1 9 5 WNW 1024,0 20 0,0
20.01.2018 10:00:00 11,7 1,0 8 4 NW 1023,9 20 -
20.01.2018 09:00:00 10,0 1,1 11 6 WNW 1023,5 20 0,0
20.01.2018 08:00:00 9,6 1,0 11 6 WNW 1023,3 20 0,0
20.01.2018 07:00:00 9,4 1,1 9 5 WNW 1022,8 20 -
20.01.2018 06:00:00 10,6 0,9 4 2 NW 1022,8 20 0,0
20.01.2018 05:00:00 11,8 1,1 9 5 WNW 1022,9 20 0,0
20.01.2018 04:00:00 12,2 1,5 11 6 WNW 1022,6 20 -
20.01.2018 03:00:00 12,5 1,2 5 3 NW 1022,6 20 0,0
20.01.2018 02:00:00 11,8 1,4 8 4 NNE 1022,4 20 0,0
20.01.2018 01:00:00 12,0 2,4 9 5 WNW 1022,0 20 -
20.01.2018 00:00:00 10,4 3,4 9 5 WNW 1021,9 20 0,0
19.01.2018 23:00:00 11,2 3,9 4 2 NNW 1022,0 20 0,0
19.01.2018 22:00:00 11,7 4,4 4 2 WNW 1021,7 20 -
19.01.2018 21:00:00 12,1 5,9 5 3 W 1020,7 15 0,0
19.01.2018 20:00:00 12,4 5,8 8 4 SSW 1020,4 17 0,0
19.01.2018 19:00:00 13,6 6,2 2 1 NNW 1019,8 17 -
19.01.2018 18:00:00 15,3 6,3 5 3 S 1018,5 20 0,0
19.01.2018 17:00:00 17,1 5,7 5 3 S 1018,0 20 0,0
19.01.2018 16:00:00 17,8 6,3 8 4 S 1017,8 20 -
19.01.2018 15:00:00 18,3 5,2 11 6 S 1017,7 20 0,0
19.01.2018 14:00:00 17,6 5,2 5 3 S 1018,2 19 0,0
19.01.2018 13:00:00 16,2 4,2 8 4 W 1018,6 20 -
19.01.2018 12:00:00 15,4 3,5 9 5 WNW 1019,5 20 0,0
19.01.2018 11:00:00 13,1 3,2 11 6 W 1019,9 20 0,0
19.01.2018 10:00:00 11,1 2,6 11 6 WNW 1019,9 20 -
19.01.2018 09:00:00 9,2 2,1 9 5 WNW 1019,4 19 0,0
19.01.2018 08:00:00 9,3 2,2 9 5 W 1019,0 20 0,0
19.01.2018 07:00:00 8,5 2,1 8 4 WNW 1018,4 20 -
19.01.2018 06:00:00 8,8 3,4 5 3 WNW 1018,0 17 0,0
19.01.2018 05:00:00 8,5 3,5 4 2 NW 1018,2 20 0,0
19.01.2018 04:00:00 8,2 3,8 11 6 W 1018,6 14 -
19.01.2018 03:00:00 8,5 3,9 5 3 WNW 1018,9 20 0,0
19.01.2018 02:00:00 9,0 4,0 4 2 NW 1019,6 20 0,0
19.01.2018 01:00:00 9,1 5,3 9 5 W 1019,7 16 -
19.01.2018 00:00:00 8,4 5,5 11 6 WNW 1019,7 15 0,0
18.01.2018 23:00:00 8,8 5,7 9 5 WNW 1020,9 16 0,0
18.01.2018 22:00:00 8,8 6,1 9 5 WNW 1021,2 13 -
18.01.2018 21:00:00 9,9 6,8 0 0 N 1021,3 18 0,0
18.01.2018 20:00:00 10,6 7,1 2 1 SW 1021,8 18 0,0
18.01.2018 19:00:00 11,5 7,8 4 2 SSE 1021,6 20 -
18.01.2018 18:00:00 13,0 7,9 4 2 S 1021,3 20 0,0
18.01.2018 17:00:00 14,6 7,2 8 4 S 1021,1 20 0,0
18.01.2018 16:00:00 15,7 7,7 9 5 S 1021,3 20 -
18.01.2018 15:00:00 16,7 6,2 11 6 S 1021,7 20 0,0
18.01.2018 14:00:00 17,2 7,0 11 6 S 1022,8 20 0,0
18.01.2018 13:00:00 16,9 5,8 9 5 SSE 1024,1 40 -
18.01.2018 12:00:00 14,2 4,5 5 3 W 1025,6 19 0,0
18.01.2018 11:00:00 11,2 1,4 8 4 W 1026,4 19 0,0
18.01.2018 10:00:00 8,5 -0,5 11 6 WNW 1026,3 40 -

tt = Température de l'air
td = dewpoint
ff = Vitesse du vent
dd = Direction du vent
ppp = reduced air pressure
vv = visibility
rr = Quantités de précipitations

stations d'obs. à proximité